星链-1279 (STARLINK-1279 )

导读 | 星芒AI

STARLINK-1279 是 SpaceX Starlink 卫星互联网项目中的一个低轨卫星。该卫星属于 Starlink 计划的第二批部署任务(Transporter-2 任务),于 2021 年 5 月 28 日发射升空。它运行在约 550 公里的轨道高度,旨在为全球用户提供高速、低延迟的互联网服务。STARLINK-1279 采用先进的相控阵天线和激光通信技术,支持与其他 Starlink 卫星的星间链路,提升网络效率和覆盖范围。该卫星是 SpaceX 打造全球宽带网络的重要组成部分。

基本信息
目录编号:
45360
目录名称:
STARLINK-1279
国际标识:
2020-019A
轨道中心:
EARTH
卫星名称:
星链-1279
卫星全名:
星链-1279 (STARLINK-1279 )
卫星状态:
在轨 (已飞行2098 天)
发射日期:
2020-03-18 UTC
国别 :
美国 (US)
星等 :
--
轨道信息
数据来源 国际轨道数据
星历时间: 2025-12-15T08:00:04+0800
19小时前
查看轨道信息
半长轴: 6819.951km
偏心率: 0.000659
轨道倾角: 53.049°
近地点辐角 170.769°
升交点赤经 144.405°
平近点角 335.909°
近地点: 437.321km
远地点: 446.311km
周期: 93.418分钟
每日圈数: 15.414552
详细信息
固有亮度:
5
最大亮度:
2.5
卫星平台:
Starlink V1.0
覆盖范围:
全球
运营商:
太空探索技术公司
运营商所在国:
美国
制造商(研发单位):
太空探索技术公司
制造商所在国:
美国
使用方式:
暂无
卫星简介
星链(Starlink)计划是由太空探索技术公司(SpaceX)提出的一个巨型低轨卫星互联网星座项目,计划在2019年至2024年间在太空搭建由约1.2万颗卫星组成的“星链”网络,其中1584颗将部署在地球上空550千米处的近地轨道,并从2020年开始工作。该卫星仍在工作。
2D轨道图
3D轨道图
轨道高度分析图
轨道倾角分析图
轨道综合分析图
查看轨道综合分析图